This is the latest recevied weather packets stored in our database for station/object AI5YA-13. If no packets are shown the sender has not sent any weather packets the latest 10 day(s).
| Time | Temp. | Humidity | Pressure | Rain* | Wind** | Luminosity | Snow |
|---|---|---|---|---|---|---|---|
| 1777388830 | 28.89° C | 13% | 1014.3 hPa | 0 mm | - | 297 W/m² | - |
| 1777388528 | 28.89° C | 13% | 1014.6 hPa | 0 mm | - | 391 W/m² | - |
| 1777388228 | 28.33° C | 13% | 1014.5 hPa | 0 mm | - | 440 W/m² | - |
| 1777387923 | 28.89° C | 13% | 1014.6 hPa | 0 mm | - | 309 W/m² | - |
| 1777387614 | 28.33° C | 13% | 1014.4 hPa | 0 mm | - | 345 W/m² | - |
| 1777387311 | 27.78° C | 13% | 1014.5 hPa | 0 mm | - | 324 W/m² | - |
| 1777387005 | 27.78° C | 13% | 1014.5 hPa | 0 mm | - | 294 W/m² | - |
| 1777386703 | 27.22° C | 14% | 1014.4 hPa | 0 mm | - | 286 W/m² | - |
| 1777386399 | 27.22° C | 15% | 1014.6 hPa | 0 mm | - | 265 W/m² | - |
| 1777386097 | 26.67° C | 15% | 1014.8 hPa | 0 mm | - | 226 W/m² | - |
| 1777385793 | 26.67° C | 15% | 1014.7 hPa | 0 mm | - | 229 W/m² | - |
| 1777385490 | 26.11° C | 16% | 1014.5 hPa | 0 mm | - | 199 W/m² | - |
| 1777385188 | 25.56° C | 17% | 1014.5 hPa | 0 mm | - | 189 W/m² | - |
| 1777384883 | 25° C | 19% | 1015 hPa | 0 mm | - | 185 W/m² | - |
| 1777384580 | 23.89° C | 22% | 1014.4 hPa | 0 mm | - | 147 W/m² | - |
| 1777384275 | 23.89° C | 25% | 1014.5 hPa | 0 mm | - | 106 W/m² | - |
| 1777383970 | 23.89° C | 28% | 1014.3 hPa | 0 mm | - | 137 W/m² | - |
| 1777383666 | 23.33° C | 27% | 1014 hPa | 0 mm | - | 124 W/m² | - |
| 1777383364 | 22.78° C | 30% | 1014.2 hPa | 0 mm | - | 71 W/m² | - |
| 1777383059 | 22.78° C | 34% | 1014.2 hPa | 0 mm | - | 80 W/m² | - |
| 1777382756 | 22.22° C | 37% | 1014.1 hPa | 0 mm | - | 100 W/m² | - |
| 1777382452 | 21.67° C | 41% | 1013.9 hPa | 0 mm | - | 93 W/m² | - |
| 1777382148 | 20.56° C | 45% | 1014 hPa | 0 mm | - | 64 W/m² | - |
| 1777381844 | 20.56° C | 50% | 1014.1 hPa | 0 mm | - | 65 W/m² | - |
| 1777381544 | 19.44° C | 55% | 1013.9 hPa | 0 mm | - | 65 W/m² | - |
* Rain latest hour (hover to see other rain measurements)
** Current wind speed in m/s (hover to see current wind gust speed)